• In Hungary
  • List of Countries
  • For 7 days
  • Water Temperature
  • Satellite Maps
  • Weather Map
  • News
  • Weather Widgets
  • user-avatar
    Login

    Hourly Weather Orlik

    Today, 12 December, Tuesday

    Time Temperature Precipitation Wind Pressure Humidity
    00:00 -17°C° 0 mm 1 mps 642 mmHg 74%
    01:00 -18°C° 0 mm 1 mps 642 mmHg 76%
    02:00 -18°C° 0 mm 1 mps 642 mmHg 76%
    03:00 -18°C° 0 mm 1 mps 641 mmHg 77%
    04:00 -21°C° 0 mm 2 mps 641 mmHg 77%
    05:00 -21°C° 0 mm 2 mps 641 mmHg 77%
    06:00 -21°C° 0 mm 2 mps 641 mmHg 77%
    07:00 -23°C° 0 mm 2 mps 641 mmHg 71%
    08:00 -21°C° 0 mm 2 mps 641 mmHg 73%
    09:00 -20°C° 0 mm 2 mps 641 mmHg 75%
    10:00 -18°C° 0 mm 2 mps 640 mmHg 77%
    11:00 -17°C° 0 mm 2 mps 640 mmHg 78%
    12:00 -15°C° 0 mm 2 mps 640 mmHg 79%
    13:00 -12°C° 0 mm 1 mps 640 mmHg 80%
    14:00 -13°C° 0.1 mm 1 mps 640 mmHg 83%
    15:00 -13°C° 0.1 mm 1 mps 640 mmHg 86%
    16:00 -14°C° 0.1 mm 1 mps 639 mmHg 89%
    17:00 -14°C° 0.1 mm 1 mps 639 mmHg 91%
    18:00 -15°C° 0.1 mm 1 mps 640 mmHg 92%
    19:00 -15°C° 0.1 mm 1 mps 640 mmHg 94%
    20:00 -15°C° 0.1 mm 1 mps 640 mmHg 94%
    21:00 -15°C° 0.1 mm 1 mps 640 mmHg 95%
    22:00 -15°C° 0.1 mm 1 mps 641 mmHg 95%
    23:00 -15°C° 0.1 mm 1 mps 641 mmHg 95%

    Tomorrow, 13 December, Wednesday

    Time Temperature Precipitation Wind Pressure Humidity
    00:00 -15°C° 0.1 mm 1 mps 641 mmHg 96%
    01:00 -16°C° 0.1 mm 1 mps 642 mmHg 96%
    02:00 -16°C° 0.1 mm 1 mps 642 mmHg 96%
    03:00 -16°C° 0.1 mm 1 mps 642 mmHg 96%
    04:00 -16°C° 0.1 mm 1 mps 642 mmHg 96%
    05:00 -17°C° 0 mm 1 mps 643 mmHg 95%
    06:00 -17°C° 0 mm 1 mps 643 mmHg 95%
    07:00 -17°C° 0 mm 1 mps 643 mmHg 95%
    08:00 -17°C° 0 mm 1 mps 644 mmHg 94%
    09:00 -17°C° 0 mm 1 mps 644 mmHg 93%
    10:00 -19°C° 0 mm 2 mps 644 mmHg 93%
    11:00 -18°C° 0 mm 2 mps 645 mmHg 91%
    12:00 -17°C° 0 mm 2 mps 645 mmHg 90%
    13:00 -16°C° 0 mm 2 mps 645 mmHg 88%
    14:00 -18°C° 0 mm 2 mps 645 mmHg 90%
    15:00 -19°C° 0 mm 2 mps 645 mmHg 92%
    16:00 -20°C° 0 mm 2 mps 645 mmHg 94%
    17:00 -20°C° 0 mm 2 mps 645 mmHg 93%
    18:00 -21°C° 0 mm 2 mps 645 mmHg 93%
    19:00 -23°C° 0 mm 2 mps 646 mmHg 93%
    20:00 -23°C° 0 mm 2 mps 646 mmHg 93%
    21:00 -23°C° 0 mm 2 mps 646 mmHg 93%
    22:00 -23°C° 0 mm 2 mps 646 mmHg 93%
    23:00 -23°C° 0 mm 2 mps 646 mmHg 93%

    Day after tomorrow, 14 December, Thursday

    Time Temperature Precipitation Wind Pressure Humidity
    00:00 -24°C° 0 mm 2 mps 646 mmHg 93%
    01:00 -24°C° 0 mm 2 mps 646 mmHg 93%
    02:00 -24°C° 0 mm 2 mps 646 mmHg 93%
    03:00 -24°C° 0 mm 2 mps 646 mmHg 93%
    04:00 -24°C° 0 mm 2 mps 646 mmHg 93%
    05:00 -24°C° 0 mm 2 mps 646 mmHg 93%
    06:00 -24°C° 0 mm 2 mps 647 mmHg 93%
    07:00 -24°C° 0 mm 2 mps 647 mmHg 93%
    08:00 -23°C° 0 mm 2 mps 647 mmHg 93%
    09:00 -23°C° 0 mm 2 mps 647 mmHg 93%
    10:00 -21°C° 0 mm 2 mps 648 mmHg 93%
    11:00 -22°C° 0 mm 3 mps 648 mmHg 90%
    12:00 -21°C° 0 mm 3 mps 647 mmHg 88%
    13:00 -19°C° 0 mm 3 mps 647 mmHg 86%
    14:00 -21°C° 0 mm 3 mps 647 mmHg 88%
    15:00 -22°C° 0 mm 3 mps 647 mmHg 90%
    16:00 -21°C° 0 mm 2 mps 647 mmHg 92%
    17:00 -21°C° 0.1 mm 2 mps 647 mmHg 93%
    18:00 -23°C° 0.1 mm 2 mps 648 mmHg 93%
    19:00 -23°C° 0.1 mm 2 mps 648 mmHg 94%
    20:00 -23°C° 0.1 mm 2 mps 648 mmHg 94%
    21:00 -23°C° 0.1 mm 2 mps 649 mmHg 94%
    22:00 -23°C° 0.1 mm 2 mps 649 mmHg 94%
    23:00 -23°C° 0.1 mm 2 mps 649 mmHg 94%

    15 December, Friday

    Time Temperature Precipitation Wind Pressure Humidity
    00:00 -24°C° 0.1 mm 3 mps 649 mmHg 94%
    01:00 -24°C° 0.1 mm 3 mps 649 mmHg 94%
    02:00 -24°C° 0.1 mm 3 mps 649 mmHg 94%
    03:00 -24°C° 0.1 mm 3 mps 649 mmHg 93%
    04:00 -24°C° 0.1 mm 3 mps 649 mmHg 93%
    05:00 -24°C° 0 mm 3 mps 649 mmHg 93%
    06:00 -24°C° 0 mm 3 mps 649 mmHg 93%
    07:00 -24°C° 0 mm 3 mps 649 mmHg 93%
    08:00 -24°C° 0 mm 3 mps 650 mmHg 92%
    09:00 -23°C° 0 mm 3 mps 650 mmHg 92%
    10:00 -23°C° 0 mm 3 mps 650 mmHg 91%
    11:00 -22°C° 0 mm 3 mps 650 mmHg 90%
    12:00 -19°C° 0 mm 3 mps 650 mmHg 90%
    13:00 -18°C° 0 mm 3 mps 650 mmHg 89%
    14:00 -19°C° 0 mm 3 mps 649 mmHg 90%
    15:00 -21°C° 0 mm 3 mps 649 mmHg 91%
    16:00 -22°C° 0 mm 3 mps 649 mmHg 93%
    17:00 -22°C° 0 mm 3 mps 649 mmHg 93%
    18:00 -22°C° 0 mm 3 mps 649 mmHg 92%
    19:00 -22°C° 0 mm 3 mps 649 mmHg 92%
    20:00 -22°C° 0.1 mm 3 mps 649 mmHg 92%
    21:00 -22°C° 0.1 mm 3 mps 649 mmHg 92%
    22:00 -21°C° 0.1 mm 3 mps 649 mmHg 92%
    23:00 -21°C° 0.1 mm 3 mps 649 mmHg 92%

    16 December, Saturday

    Time Temperature Precipitation Wind Pressure Humidity
    00:00 -19°C° 0.1 mm 3 mps 649 mmHg 92%
    01:00 -19°C° 0.1 mm 3 mps 648 mmHg 92%
    02:00 -19°C° 0.1 mm 3 mps 648 mmHg 92%
    03:00 -19°C° 0.1 mm 3 mps 648 mmHg 92%
    04:00 -19°C° 0.1 mm 3 mps 648 mmHg 92%
    05:00 -19°C° 0.1 mm 3 mps 648 mmHg 92%
    06:00 -19°C° 0.1 mm 3 mps 648 mmHg 92%
    07:00 -18°C° 0.1 mm 3 mps 647 mmHg 92%
    08:00 -18°C° 0.1 mm 3 mps 647 mmHg 92%
    09:00 -17°C° 0.1 mm 3 mps 647 mmHg 91%
    10:00 -17°C° 0.1 mm 3 mps 647 mmHg 91%
    11:00 -16°C° 0.1 mm 3 mps 647 mmHg 89%
    12:00 -15°C° 0.1 mm 3 mps 647 mmHg 87%
    13:00 -13°C° 0.1 mm 3 mps 646 mmHg 85%
    14:00 -14°C° 0.1 mm 3 mps 646 mmHg 87%
    15:00 -14°C° 0.1 mm 3 mps 646 mmHg 89%
    16:00 -15°C° 0.1 mm 3 mps 645 mmHg 91%
    17:00 -15°C° 0.2 mm 3 mps 645 mmHg 91%
    18:00 -15°C° 0.2 mm 3 mps 645 mmHg 92%
    19:00 -15°C° 0.2 mm 3 mps 645 mmHg 92%
    20:00 -15°C° 0.1 mm 3 mps 645 mmHg 92%
    21:00 -16°C° 0.1 mm 3 mps 645 mmHg 92%
    22:00 -16°C° 0.1 mm 3 mps 645 mmHg 92%
    23:00 -16°C° 0.1 mm 3 mps 645 mmHg 92%

    17 December, Sunday

    Time Temperature Precipitation Wind Pressure Humidity
    00:00 -16°C° 0.1 mm 3 mps 644 mmHg 92%
    01:00 -16°C° 0.1 mm 3 mps 644 mmHg 92%
    02:00 -16°C° 0.1 mm 3 mps 644 mmHg 92%
    03:00 -16°C° 0.1 mm 3 mps 644 mmHg 92%
    04:00 -15°C° 0.1 mm 3 mps 644 mmHg 92%
    05:00 -16°C° 0.1 mm 3 mps 644 mmHg 92%
    06:00 -16°C° 0.1 mm 3 mps 644 mmHg 92%
    07:00 -16°C° 0.1 mm 3 mps 644 mmHg 92%
    08:00 -16°C° 0.1 mm 3 mps 644 mmHg 92%
    09:00 -16°C° 0.1 mm 3 mps 645 mmHg 92%
    10:00 -16°C° 0.1 mm 3 mps 645 mmHg 92%
    11:00 -15°C° 0.1 mm 3 mps 645 mmHg 89%
    12:00 -14°C° 0.1 mm 3 mps 645 mmHg 86%
    13:00 -14°C° 0.1 mm 4 mps 644 mmHg 83%
    14:00 -15°C° 0 mm 4 mps 644 mmHg 85%
    15:00 -15°C° 0 mm 3 mps 644 mmHg 87%
    16:00 -16°C° 0 mm 3 mps 644 mmHg 89%
    17:00 -16°C° 0.1 mm 3 mps 644 mmHg 89%
    18:00 -15°C° 0.1 mm 3 mps 644 mmHg 90%
    19:00 -15°C° 0.1 mm 3 mps 644 mmHg 90%
    20:00 -15°C° 0.1 mm 3 mps 644 mmHg 91%
    21:00 -15°C° 0.1 mm 3 mps 644 mmHg 91%
    22:00 -15°C° 0.1 mm 3 mps 643 mmHg 92%
    23:00 -15°C° 0.1 mm 3 mps 643 mmHg 92%
    Show more